{"data":{"norad_id":53414,"intl_designator":"2022-097AC","name":"STARLINK-4304","alt_names":[],"object_type":"PAYLOAD","status":"ACTIVE","operator":null,"country":"US","launch_date":"2022-08-10","launch_site_code":"AFETR","launch_vehicle":null,"mission":null,"orbit_class":"UNKNOWN","rcs_meters":null,"size_class":null,"mass_kg":null,"dimensions":null,"purposes":["comms"],"wikipedia_slug":null,"has_3d_model":false,"image_url":null,"decayed_at":null,"tle_current":{"epoch":"2026-09-20T03:06:44.505792Z","epoch_age_seconds":107456,"freshness":"FRESH","line1":"1 53414U 22097AC  26263.12968178  .00009362  00000+0  28846-3 0  9998","line2":"2 53414  53.1594 309.5783 0000840  54.2180 305.8900 15.34332755228154","mean_motion":15.34332755,"eccentricity":8.4e-5,"inclination_deg":53.1594,"raan_deg":309.5783,"arg_perigee_deg":54.218,"mean_anomaly_deg":305.89,"bstar":0.00028846,"rev_number":22815,"period_min":93.851871134694,"perigee_km":462.32846644835,"apogee_km":463.47776118747,"semimajor_km":6841.0401138179,"source":"CELESTRAK","updated_at":"2026-09-20T09:00:40.228189Z"}}}